COSMOS 2173

导读 | 星芒AI

COSMOS 2173 是苏联于1992年3月24日发射的一颗军用通信卫星,搭载在“联盟号”运载火箭上。该卫星属于“COSPAS-SARSAT”系统的一部分,主要用于搜索与救援任务,能够接收和转发遇险信号,协助全球范围内的紧急救援行动。COSMOS 2173 运行在近地轨道,设计寿命较短,最终在1999年退役。该卫星的发射体现了苏联在航天和应急响应领域的技术能力。

基本信息
目录编号:
21796
目录名称:
COSMOS 2173
国际标识:
1991-081A
轨道中心:
EARTH
卫星名称:
COSMOS 2173
卫星全名:
--
卫星状态:
在轨 (已飞行12437 天)
发射日期:
1991-11-27 UTC
国别 :
俄罗斯(独联体) (CIS)
星等 :
--
轨道信息
数据来源 国际轨道数据
星历时间: 2025-12-14T16:00:27+0800
1天前
查看轨道信息
半长轴: 7357.161km
偏心率: 0.00501
轨道倾角: 82.955°
近地点辐角 137.047°
升交点赤经 307.640°
平近点角 333.044°
近地点: 942.166km
远地点: 1015.886km
周期: 104.671分钟
每日圈数: 13.757434
详细信息
使用方式:
暂无
2D轨道图
3D轨道图
轨道高度分析图
轨道倾角分析图
轨道综合分析图
查看轨道综合分析图